Oxford, NC

12:09 PM EDT on May 27, 2018 (GMT -0400)
Henderson-Oxford

Weather History for KHNZ - May, 2013

Change the Weather History Date:

Tuesday, May 14, 2013

  Actual Average (KTDF) Record (KTDF)
Temperature  
Mean Temperature 53 °F -  
Max Temperature 68 °F 77 °F 92 °F (1982)
Min Temperature 38 °F 54 °F 33 °F (2013)
Degree Days  
Heating Degree Days 12    
Growing Degree Days 3 (Base 50)    
Moisture  
Dew Point 36 °F    
Average Humidity 52    
Maximum Humidity 94    
Minimum Humidity 24    
Precipitation  
Precipitation 0.00 in - - ()
Sea Level Pressure  
Sea Level Pressure 30.17 in    
Wind  
Wind Speed 2 mph (SSW)    
Max Wind Speed 12 mph    
Max Gust Speed 16 mph    
Visibility 10 miles    
Events      
Averages and records for this station are not official NWS values.
T = Trace of Precipitation, MM = Missing Value Source: NWS Daily Summary

Daily Weather History Graph

Daily Weather History Graph

Search for Another Location

Airport or City:

Astronomy

May. 14, 2013 Rise Set
Actual Time 6:08 AM EDT 8:13 PM EDT
Civil Twilight 5:39 AM EDT 8:41 PM EDT
Nautical Twilight 5:04 AM EDT 9:17 PM EDT
Astronomical Twilight 4:26 AM EDT 9:54 PM EDT
Moon 9:45 AM EDT (5/14) No Moon Set
Length of Visible Light 15h 02m
Length of Day
14h 05m
Waxing Crescent, 19% of the Moon is Illuminated
May 14
Waxing Crescent
May 18
First Quarter
May 25
Full
May 31
Last Quarter
Jun 8
New

Hourly Weather History & Observations

Time (EDT) Temp. Dew Point Humidity Pressure Visibility Wind Dir Wind Speed Gust Speed Precip Events Conditions
12:15 AM 48.2 °F 38.1 °F 68% 30.19 in 10.0 mi Calm Calm - N/A   Mostly Cloudy
12:35 AM 47.8 °F 39.0 °F 71% 30.20 in 10.0 mi Calm Calm - N/A   Mostly Cloudy
12:55 AM 46.6 °F 40.1 °F 78% 30.20 in 10.0 mi Calm Calm - N/A   Mostly Cloudy
1:35 AM 47.3 °F 36.1 °F 65% 30.20 in 10.0 mi Calm Calm - N/A   Scattered Clouds
1:55 AM 45.9 °F 38.3 °F 75% 30.19 in 10.0 mi Calm Calm - N/A   Scattered Clouds
2:15 AM 46.4 °F 36.7 °F 69% 30.19 in 10.0 mi Calm Calm - N/A   Scattered Clouds
2:35 AM 44.6 °F 38.8 °F 80% 30.19 in 10.0 mi Calm Calm - N/A   Clear
2:55 AM 43.2 °F 37.8 °F 81% 30.19 in 10.0 mi Calm Calm - N/A   Clear
3:15 AM 43.2 °F 36.9 °F 78% 30.20 in 10.0 mi Calm Calm - N/A   Clear
3:35 AM 41.5 °F 37.4 °F 85% 30.20 in 10.0 mi Calm Calm - N/A   Clear
3:55 AM 43.0 °F 37.0 °F 80% 30.20 in 10.0 mi Calm Calm - N/A   Clear
4:15 AM 40.8 °F 37.8 °F 89% 30.21 in 10.0 mi Calm Calm - N/A   Clear
4:35 AM 41.2 °F 38.1 °F 89% 30.21 in 10.0 mi Calm Calm - N/A   Clear
4:55 AM 40.3 °F 37.4 °F 89% 30.21 in 10.0 mi Calm Calm - N/A   Clear
5:15 AM 40.1 °F 37.8 °F 91% 30.21 in 10.0 mi Calm Calm - N/A   Clear
5:55 AM 38.3 °F 36.1 °F 92% 30.22 in 10.0 mi Calm Calm - N/A   Clear
6:15 AM 38.3 °F 36.5 °F 93% 30.22 in 10.0 mi Calm Calm - N/A   Clear
6:35 AM 38.8 °F 37.2 °F 94% 30.23 in 10.0 mi Calm Calm - N/A   Clear
6:55 AM 39.6 °F 37.4 °F 92% 30.24 in 10.0 mi Calm Calm - N/A   Clear
7:15 AM 42.1 °F 39.6 °F 91% 30.24 in 10.0 mi Calm Calm - N/A   Clear
7:35 AM 45.5 °F 40.8 °F 84% 30.24 in 10.0 mi Calm Calm - N/A   Clear
7:55 AM 47.7 °F 38.5 °F 70% 30.25 in 10.0 mi NW 3.5 mph - N/A   Clear
8:15 AM 49.5 °F 37.0 °F 62% 30.25 in 10.0 mi NNW 3.5 mph - N/A   Clear
8:35 AM 50.7 °F 35.2 °F 55% 30.25 in 10.0 mi Calm Calm - N/A   Clear
8:55 AM 52.3 °F 34.0 °F 50% 30.25 in 10.0 mi Calm Calm - N/A   Clear
9:15 AM 53.8 °F 32.5 °F 45% 30.25 in 10.0 mi Calm Calm - N/A   Clear
9:35 AM 54.9 °F 32.7 °F 43% 30.25 in 10.0 mi Calm Calm - N/A   Clear
9:55 AM 56.1 °F 31.3 °F 39% 30.25 in 10.0 mi Calm Calm - N/A   Clear
10:15 AM 56.5 °F 32.2 °F 40% 30.25 in 10.0 mi SSE 4.6 mph - N/A   Clear
10:35 AM 57.9 °F 33.4 °F 40% 30.25 in 10.0 mi SSW 3.5 mph - N/A   Clear
10:55 AM 59.0 °F 33.8 °F 39% 30.26 in 10.0 mi NW 4.6 mph - N/A   Clear
11:15 AM 59.5 °F 32.7 °F 36% 30.25 in 10.0 mi Calm Calm - N/A   Clear
11:35 AM 60.6 °F 34.2 °F 37% 30.24 in 10.0 mi SSW 6.9 mph - N/A   Clear
11:55 AM 61.9 °F 34.7 °F 36% 30.24 in 10.0 mi West 5.8 mph - N/A   Clear
12:15 PM 62.4 °F 35.2 °F 36% 30.24 in 10.0 mi SW 5.8 mph - N/A   Clear
12:35 PM 63.0 °F 33.1 °F 33% 30.22 in 10.0 mi WSW 8.1 mph - N/A   Clear
12:55 PM 63.7 °F 32.2 °F 31% 30.20 in 10.0 mi Calm Calm - N/A   Clear
1:15 PM 64.4 °F 31.1 °F 29% 30.20 in 10.0 mi NW 4.6 mph - N/A   Clear
1:35 PM 64.0 °F 30.6 °F 28% 30.19 in 10.0 mi West 10.4 mph - N/A   Clear
1:55 PM 65.3 °F 30.6 °F 27% 30.19 in 10.0 mi NW 6.9 mph - N/A   Clear
2:15 PM 65.7 °F 30.0 °F 26% 30.18 in 10.0 mi Calm Calm - N/A   Clear
2:35 PM 66.2 °F 27.7 °F 24% 30.17 in 10.0 mi Calm Calm - N/A   Clear
2:55 PM 66.9 °F 31.6 °F 27% 30.16 in 10.0 mi WSW 9.2 mph 16.1 mph N/A   Clear
3:15 PM 66.4 °F 31.5 °F 27% 30.14 in 10.0 mi NW 3.5 mph - N/A   Clear
3:35 PM 65.3 °F 29.7 °F 26% 30.14 in 10.0 mi SW 4.6 mph - N/A   Clear
3:55 PM 65.3 °F 32.5 °F 29% 30.14 in 10.0 mi West 5.8 mph - N/A   Clear
4:15 PM 67.6 °F 33.4 °F 28% 30.13 in 10.0 mi SSW 4.6 mph - N/A   Clear
4:35 PM 67.8 °F 34.5 °F 29% 30.12 in 10.0 mi SSW 9.2 mph - N/A   Clear
4:55 PM 68.5 °F 34.5 °F 29% 30.12 in 10.0 mi SSW 11.5 mph - N/A   Clear
5:15 PM 67.5 °F 32.2 °F 27% 30.12 in 10.0 mi WSW 9.2 mph - N/A   Clear
5:35 PM 66.7 °F 34.3 °F 30% 30.12 in 10.0 mi SW 8.1 mph - N/A   Clear
5:55 PM 65.3 °F 34.2 °F 31% 30.11 in 10.0 mi SSW 5.8 mph - N/A   Clear
6:15 PM 65.1 °F 33.4 °F 31% 30.11 in 10.0 mi SSW 9.2 mph - N/A   Scattered Clouds
6:35 PM 64.6 °F 34.5 °F 33% 30.11 in 10.0 mi SSW 5.8 mph - N/A   Mostly Cloudy
6:55 PM 64.2 °F 36.0 °F 35% 30.10 in 10.0 mi SSW 4.6 mph - N/A   Overcast
7:15 PM 65.1 °F 36.7 °F 35% 30.09 in 10.0 mi South 4.6 mph - N/A   Mostly Cloudy
7:35 PM 64.0 °F 38.1 °F 38% 30.09 in 10.0 mi South 4.6 mph - N/A   Scattered Clouds
7:55 PM 63.0 °F 38.1 °F 40% 30.09 in 10.0 mi SSE 4.6 mph - N/A   Clear
8:15 PM 61.7 °F 38.5 °F 42% 30.09 in 10.0 mi SSE 3.5 mph - N/A   Clear
8:35 PM 60.3 °F 39.2 °F 46% 30.09 in 10.0 mi South 4.6 mph - N/A   Clear
8:55 PM 59.7 °F 40.1 °F 48% 30.09 in 10.0 mi South 5.8 mph - N/A   Clear
9:15 PM 59.0 °F 40.5 °F 50% 30.09 in 10.0 mi South 5.8 mph - N/A   Clear
9:35 PM 58.1 °F 40.8 °F 53% 30.09 in 10.0 mi South 4.6 mph - N/A   Scattered Clouds
9:55 PM 58.3 °F 40.5 °F 52% 30.09 in 10.0 mi SSE 5.8 mph - N/A   Scattered Clouds
10:15 PM 57.9 °F 40.3 °F 52% 30.09 in 10.0 mi South 5.8 mph - N/A   Scattered Clouds
10:35 PM 57.2 °F 40.3 °F 53% 30.08 in 10.0 mi South 8.1 mph - N/A   Clear
10:55 PM 57.2 °F 39.9 °F 52% 30.09 in 10.0 mi South 10.4 mph 16.1 mph N/A   Clear
11:15 PM 56.5 °F 40.3 °F 55% 30.08 in 7.0 mi South 5.8 mph - N/A   Clear
11:35 PM 55.8 °F 40.6 °F 57% 30.08 in 10.0 mi South 4.6 mph - N/A   Clear
11:55 PM 55.6 °F 40.6 °F 57% 30.08 in 10.0 mi Calm Calm - N/A   Clear